Regional Weather Roundup
Issued by NWS

Home | Current Version | Previous Version | Text Only | Print | Product List | Glossary Off
Versions: 1 2 3 4 5 6 7 8 9 10 11 12 13 14 15 16 17 18 19 20 21 22 23 24 25 26 27 28 29 30 31 32 33 34 35 36 37 38 39 40 41 42 43 44 45 46 47 48 49 50

000
ASUS43 KTOP 272008
RWRKS

WEATHER ROUNDUP FOR KANSAS
NATIONAL WEATHER SERVICE GOODLAND KS
200 PM CST THU NOV 27 2014

NOTE:  "FAIR" INDICATES FEW OR NO CLOUDS BELOW 12,000 FEET WITH NO
SIGNIFICANT WEATHER AND/OR OBSTRUCTIONS TO VISIBILITY.

KSZ001>006-013>018-027>032-041>047-272100-
NORTHWEST KANSAS

CITY           SKY/WX    TMP DP  RH WIND       PRES   REMARKS
GOODLAND       MOSUNNY   64  26  23 S23G31    30.10F
HAYS           SUNNY     46  21  36 S20       30.23F
HILL CITY      SUNNY     51  22  31 S15       30.18F
RUSSELL        SUNNY     46  20  35 S18G30    30.23F
$$

KSZ061>065-074>080-084>089-272100-
SOUTHWEST KANSAS

CITY           SKY/WX    TMP DP  RH WIND       PRES   REMARKS
DODGE CITY     SUNNY     51  21  30 S18G26    30.24F
ELKHART          N/A     63  31  30 S12         N/A
GARDEN CITY    SUNNY     51  24  34 S17       30.20F
GREAT BEND     SUNNY     48  21  34 S21G26    30.27F
LIBERAL        MOSUNNY   57  28  33 S16       30.23F
PRATT          SUNNY     45  19  36 S16G25    30.31F
$$

KSZ066>073-081>083-090>101-272100-
SOUTHEAST KANSAS

CITY           SKY/WX    TMP DP  RH WIND       PRES   REMARKS
CHANUTE        SUNNY     40  23  50 S6        30.44F
COFFEYVILLE    SUNNY     42  22  44 S7        30.45F
HUTCHINSON     SUNNY     44  17  33 S20G25    30.33F
MEDICINE LODGE   N/A     46  21  37 S16G24    30.32F
NEWTON         SUNNY     43  12  28 S17       30.36F
PARSONS        SUNNY     42  22  44 VRB5      30.46F
WICHITA INTL   SUNNY     44  14  29 S17       30.36F
WICHITA JABRA  SUNNY     43  15  32 S16       30.35F
WICHITA MCCONL MOSUNNY   44  12  27 S17       30.36F
WINFIELD       MOSUNNY   44  16  32 S13       30.40F
$$

KSZ007>012-019>026-033>040-048>060-102>105-272100-
NORTHEAST KANSAS

CITY           SKY/WX    TMP DP  RH WIND       PRES   REMARKS
CONCORDIA      SUNNY     40  15  36 S14       30.30F WCI  32
EMPORIA        SUNNY     40  18  41 S10       30.40F WCI  33
LAWRENCE       SUNNY     37  20  50 VRB5      30.44F
MANHATTAN      SUNNY     42  17  36 S8        30.36F
MARYSVILLE     SUNNY     37  19  48 SE8       30.35F
OLATHE IND     SUNNY     35  19  52 S7        30.43F
OLATHE EXE     SUNNY     36  21  54 SW7       30.42F
SALINA         SUNNY     45  16  31 S15G24    30.32F
TOPEKA BILLARD SUNNY     39  20  46 S7        30.43F
TOPEKA FORBES  SUNNY     40  21  46 S8        30.41F
$$


USA.gov is the U.S. government's official web portal to all federal, state and local government web resources and services.